sat.trackr.live / text

‹ back to catalog

TJS-5

NORAD 44978 · 2020-002A

PAYLOAD ACTIVE UNKNOWN

§ Identity

Operator
Country
PRC
Launch date
2020-01-07
Launch site
XICLF
Launch vehicle
Mass (kg)
RCS (m²)

Purposes: comms

External: N2YO · Heavens-Above · Gunter

§ Orbital elements

Epoch: 2026-09-20T00:19:31.507104Z

Period
1,436.11 min
Inclination
0.2312°
Eccentricity
0.0007479
Mean motion
1.00270786 rev/d
Perigee alt
35,755.3 km
Apogee alt
35,818.4 km
Semi-major
42,165.0 km
B*
0.0000e+0
RAAN
83.0206°
Arg perigee
351.3891°
Mean anomaly
36.9026°
Rev number
2,466

§ Raw data

TJS-51 44978U 20002A   26263.01355911 -.00000346  00000+0  00000+0 0  99922 44978   0.2312  83.0206 0007479 351.3891  36.9026  1.00270786 24663

JSON: /api/v1/satellites/44978 · /tle

For live sub-satellite position, see the globe view (requires WebGL).

§ Visibility from observer

Set your observer location to see the next 7 days of passes ≥ 10°. The values pass through the URL so the page stays shareable.

No JS? Fill the form by hand. The geolocation button needs JavaScript.